TimeMDT,TemperatureF,Dew PointF,Humidity,Sea Level PressureIn,VisibilityMPH,Wind Direction,Wind SpeedMPH,Gust SpeedMPH,PrecipitationIn,Events,Conditions,WindDirDegrees,DateUTC
12:53 AM,54.0,52.0,93,29.93,10.0,NW,3.5,-,N/A,,Clear,320,2013-07-07 06:53:00
1:53 AM,54.0,52.0,93,29.93,10.0,Calm,Calm,-,N/A,,Clear,0,2013-07-07 07:53:00
2:53 AM,53.1,52.0,96,29.92,10.0,NNW,4.6,-,N/A,,Clear,340,2013-07-07 08:53:00
3:53 AM,54.0,52.0,93,29.90,10.0,NW,3.5,-,N/A,,Mostly Cloudy,320,2013-07-07 09:53:00
4:53 AM,57.0,52.0,83,29.90,10.0,NW,3.5,-,0.00,Rain,Light Rain,310,2013-07-07 10:53:00
5:53 AM,55.9,53.1,90,29.93,10.0,WSW,8.1,-,0.01,Rain,Light Rain,240,2013-07-07 11:53:00
6:53 AM,57.0,54.0,89,29.94,10.0,Calm,Calm,-,0.03,,Overcast,0,2013-07-07 12:53:00
7:53 AM,55.9,55.0,97,29.94,10.0,WNW,3.5,-,0.01,Rain,Light Rain,300,2013-07-07 13:53:00
8:53 AM,61.0,57.0,87,29.96,10.0,Calm,Calm,-,0.00,,Mostly Cloudy,0,2013-07-07 14:53:00
9:53 AM,64.9,55.0,70,29.95,10.0,Calm,Calm,-,N/A,,Clear,0,2013-07-07 15:53:00
10:53 AM,68.0,54.0,61,29.97,10.0,South,4.6,-,N/A,,Mostly Cloudy,180,2013-07-07 16:53:00
11:53 AM,73.0,55.0,53,29.96,10.0,SSE,6.9,-,N/A,,Mostly Cloudy,160,2013-07-07 17:53:00
12:53 PM,73.0,54.0,51,29.96,10.0,South,9.2,-,N/A,,Scattered Clouds,180,2013-07-07 18:53:00
1:53 PM,72.0,54.0,53,29.96,10.0,ESE,8.1,-,N/A,,Overcast,120,2013-07-07 19:53:00
2:53 PM,75.9,54.0,46,29.94,10.0,SE,8.1,-,N/A,,Mostly Cloudy,140,2013-07-07 20:53:00
3:53 PM,75.9,55.0,48,29.93,10.0,SE,9.2,-,N/A,,Partly Cloudy,130,2013-07-07 21:53:00
4:53 PM,75.9,55.0,48,29.91,10.0,Variable,6.9,-,N/A,,Scattered Clouds,0,2013-07-07 22:53:00
5:53 PM,72.0,55.9,57,29.91,10.0,ESE,9.2,16.1,N/A,,Partly Cloudy,120,2013-07-07 23:53:00
6:53 PM,71.1,57.9,63,29.93,10.0,ESE,9.2,-,N/A,,Clear,110,2013-07-08 00:53:00
7:53 PM,68.0,60.1,76,29.96,10.0,Calm,Calm,-,N/A,,Clear,0,2013-07-08 01:53:00
8:53 PM,64.0,60.1,87,29.96,10.0,East,5.8,-,N/A,,Clear,80,2013-07-08 02:53:00
9:53 PM,62.1,59.0,90,29.97,10.0,East,3.5,-,N/A,,Clear,90,2013-07-08 03:53:00
10:05 PM,60.8,59.0,94,30.13,10.0,ESE,4.6,-,N/A,,Scattered Clouds,110,2013-07-08 04:05:00
10:13 PM,60.8,60.8,100,30.14,10.0,Calm,Calm,-,N/A,,Mostly Cloudy,0,2013-07-08 04:13:00
10:53 PM,63.0,61.0,93,29.97,7.0,ESE,3.5,-,N/A,,Overcast,110,2013-07-08 04:53:00
11:17 PM,62.6,60.8,94,30.19,8.0,North,5.8,-,N/A,,Mostly Cloudy,350,2013-07-08 05:17:00
11:24 PM,62.6,60.8,94,30.21,8.0,NNW,9.2,-,N/A,Thunderstorm,Mostly Cloudy,340,2013-07-08 05:24:00
11:35 PM,62.6,59.0,88,30.21,10.0,North,16.1,24.2,N/A,Thunderstorm,Thunderstorm,350,2013-07-08 05:35:00
11:50 PM,64.4,55.4,73,30.20,10.0,North,12.7,25.3,N/A,,Overcast,10,2013-07-08 05:50:00
11:53 PM,64.0,55.0,73,30.00,10.0,North,16.1,24.2,N/A,,Overcast,10,2013-07-08 05:53:00